K7SKM Weather Reports


Display with metric or nautical units.
time (UTC)temp
F
wind
direction
speed
MPH
gust
MPH
rain 1hr
in
rain 24hr
in
rain mn
in
humidity
%
barometer
mb
20260831054418 59 165 0.0 0.0 0.00 0.00 0.00 72 1021.7
20260831053918 59 170 0.0 0.0 0.00 0.00 0.00 71 1021.7
20260831053415 60 179 0.0 0.0 0.00 0.00 0.00 70 1022.0
20260831052911 59 179 0.0 0.0 0.00 0.00 0.00 70 1022.1
20260831052410 59 182 0.0 0.0 0.00 0.00 0.00 71 1022.0
20260831051908 59 195 0.0 0.0 0.00 0.00 0.00 71 1022.0
20260831051407 59 193 0.0 0.0 0.00 0.00 0.00 70 1021.9
20260831050902 59 188 0.0 0.0 0.00 0.00 0.00 70 1022.1
20260831050356 60 193 0.0 0.0 0.00 0.00 0.00 69 1022.1
20260831045850 60 201 0.0 0.0 0.00 0.00 0.00 69 1021.8
20260831045349 60 199 0.0 0.0 0.00 0.00 0.00 68 1022.1
20260831044844 60 165 0.0 0.0 0.00 0.00 0.00 68 1022.3
20260831044339 60 188 0.0 0.0 0.00 0.00 0.00 68 1022.1
20260831043836 60 176 0.0 0.0 0.00 0.00 0.00 68 1022.2
20260831043335 60 178 0.0 0.0 0.00 0.00 0.00 68 1022.1
20260831042830 60 184 0.0 0.0 0.00 0.00 0.00 67 1022.1
20260831042329 60 201 0.0 0.0 0.00 0.00 0.00 67 1022.1
20260831041825 61 201 0.0 0.0 0.00 0.00 0.00 66 1022.3
20260831041324 61 200 0.0 0.0 0.00 0.00 0.00 64 1022.2
20260831040819 62 200 0.0 0.0 0.00 0.00 0.00 64 1022.1
20260831040318 62 172 0.0 0.0 0.00 0.00 0.00 63 1022.1
20260831035817 63 146 0.0 0.0 0.00 0.00 0.00 63 1022.3
20260831035315 63 148 0.0 0.0 0.00 0.00 0.00 62 1022.1
20260831034810 63 212 0.0 0.0 0.00 0.00 0.00 62 1022.3
20260831034306 63 202 0.0 0.0 0.00 0.00 0.00 61 1022.1
20260831033801 63 211 0.0 0.0 0.00 0.00 0.00 60 1022.2
20260831033301 64 209 0.0 0.0 0.00 0.00 0.00 59 1022.1
20260831032756 64 209 0.0 0.0 0.00 0.00 0.00 59 1022.1
20260831032250 64 206 0.0 0.0 0.00 0.00 0.00 58 1021.9
20260831031746 64 210 0.0 0.0 0.00 0.00 0.00 57 1022.0
20260831031245 64 211 0.0 0.0 0.00 0.00 0.00 56 1021.9
20260831030740 65 213 0.0 0.0 0.00 0.00 0.00 55 1021.8
20260831030238 65 215 0.0 0.0 0.00 0.00 0.00 55 1021.9
20260831025737 65 215 0.0 0.0 0.00 0.00 0.00 54 1021.9
20260831025232 65 214 0.0 0.0 0.00 0.00 0.00 53 1022.0
20260831024729 66 214 0.0 0.0 0.00 0.00 0.00 53 1022.1
20260831024227 66 210 0.0 0.0 0.00 0.00 0.00 52 1022.0
20260831023726 67 209 0.0 0.0 0.00 0.00 0.00 51 1022.0
20260831023225 67 220 0.0 0.0 0.00 0.00 0.00 50 1022.2
20260831022720 68 216 0.0 7.0 0.00 0.00 0.00 50 1022.1
20260831022215 68 299 0.0 7.0 0.00 0.00 0.00 50 1022.1
20260831021715 68 291 2.0 7.0 0.00 0.00 0.00 49 1022.1
20260831021209 68 269 5.0 7.0 0.00 0.00 0.00 49 1022.2
20260831020706 68 223 0.0 0.0 0.00 0.00 0.00 50 1022.1
20260831020205 69 236 0.0 3.0 0.00 0.00 0.00 50 1022.3
20260831015700 69 293 0.0 3.0 0.00 0.00 0.00 50 1022.3
20260831015155 69 264 0.0 3.0 0.00 0.00 0.00 49 1022.4
20260831014650 69 307 0.0 5.0 0.00 0.00 0.00 49 1022.4
20260831014145 70 270 0.0 5.0 0.00 0.00 0.00 48 1022.5
20260831013642 70 271 0.0 3.0 0.00 0.00 0.00 48 1022.4
20260831013141 71 270 1.0 5.0 0.00 0.00 0.00 46 1022.5
20260831012636 72 273 1.0 3.0 0.00 0.00 0.00 45 1022.7
20260831012131 73 264 2.0 3.0 0.00 0.00 0.00 43 1022.4
20260831011630 74 259 0.0 3.0 0.00 0.00 0.00 43 1022.6
20260831011126 76 229 0.0 0.0 0.00 0.00 0.00 42 1022.5
20260831010622 75 211 0.0 3.0 0.00 0.00 0.00 44 1022.4
20260831010117 74 224 0.0 3.0 0.00 0.00 0.00 45 1022.6
20260831005617 74 290 5.0 10.0 0.00 0.00 0.00 45 1022.6
20260831005112 74 302 1.0 5.0 0.00 0.00 0.00 45 1022.7
20260831004608 75 223 0.0 0.0 0.00 0.00 0.00 44 1022.8
20260831004103 75 228 0.0 3.0 0.00 0.00 0.00 44 1022.6
20260831003559 75 211 0.0 3.0 0.00 0.00 0.00 43 1022.7
20260831003055 75 232 0.0 5.0 0.00 0.00 0.00 44 1022.8
20260831002553 74 220 0.0 7.0 0.00 0.00 0.00 46 1022.8
20260831002049 73 164 0.0 0.0 0.00 0.00 0.00 45 1022.6
20260831001544 74 86 0.0 0.0 0.00 0.00 0.00 45 1022.8
20260831001041 73 251 0.0 0.0 0.00 0.00 0.00 45 1023.0
20260831000537 72 258 0.0 0.0 0.00 0.00 0.00 46 1023.0
20260831000036 72 102 0.0 0.0 0.00 0.00 0.00 46 1023.1
20260830235535 72 157 0.0 5.0 0.00 0.00 0.00 46 1023.0
20260830235030 73 138 0.0 7.0 0.00 0.00 0.00 45 1023.0
20260830234525 74 234 0.0 5.0 0.00 0.00 0.00 44 1023.1
20260830234021 72 256 0.0 5.0 0.00 0.00 0.00 48 1023.3
20260830233516 71 295 4.0 10.0 0.00 0.00 0.00 47 1023.1
20260830233012 72 297 3.0 7.0 0.00 0.00 0.00 46 1023.4
20260830232508 73 207 0.0 0.0 0.00 0.00 0.00 46 1023.4
20260830232003 73 267 2.0 3.0 0.00 0.00 0.00 46 1023.3
20260830231459 73 208 0.0 5.0 0.00 0.00 0.00 46 1023.4
20260830230958 71 287 2.0 7.0 0.00 0.00 0.00 48 1023.3
20260830230454 72 247 0.0 0.0 0.00 0.00 0.00 48 1023.4
20260830225952 71 276 3.0 7.0 0.00 0.00 0.00 48 1023.4
20260830225449 71 180 0.0 7.0 0.00 0.00 0.00 48 1023.3
20260830224948 72 236 0.0 5.0 0.00 0.00 0.00 48 1023.6
20260830224447 71 225 0.0 5.0 0.00 0.00 0.00 50 1023.5
20260830223944 71 246 0.0 5.0 0.00 0.00 0.00 50 1023.6
20260830223440 71 304 3.0 5.0 0.00 0.00 0.00 50 1023.6
20260830222939 70 291 10.0 15.0 0.00 0.00 0.00 50 1023.5
20260830222434 71 269 4.0 7.0 0.00 0.00 0.00 49 1023.8
20260830221930 71 235 1.0 7.0 0.00 0.00 0.00 51 1024.0
20260830221426 71 295 7.0 7.0 0.00 0.00 0.00 50 1024.0
20260830220921 70 287 7.0 10.0 0.00 0.00 0.00 51 1023.6
20260830220416 71 263 1.0 3.0 0.00 0.00 0.00 50 1023.7
20260830215913 71 296 4.0 7.0 0.00 0.00 0.00 50 1023.8
20260830215408 70 290 3.0 7.0 0.00 0.00 0.00 52 1024.1
20260830214903 70 266 3.0 7.0 0.00 0.00 0.00 51 1023.9
20260830214358 71 236 0.0 3.0 0.00 0.00 0.00 49 1023.9
20260830213853 70 285 5.0 10.0 0.00 0.00 0.00 51 1024.3
20260830213348 70 232 0.0 5.0 0.00 0.00 0.00 51 1024.2
20260830212844 69 237 0.0 3.0 0.00 0.00 0.00 53 1024.2
20260830212340 68 271 1.0 5.0 0.00 0.00 0.00 54 1024.5
20260830211839 68 279 6.0 7.0 0.00 0.00 0.00 54 1024.3
20260830211333 68 281 1.0 5.0 0.00 0.00 0.00 55 1024.4
20260830210829 68 196 0.0 0.0 0.00 0.00 0.00 54 1024.5
20260830210328 68 268 1.0 3.0 0.00 0.00 0.00 53 1024.3
20260830205826 69 242 0.0 0.0 0.00 0.00 0.00 53 1024.4
20260830205325 68 117 0.0 0.0 0.00 0.00 0.00 54 1024.7
20260830204821 68 282 1.0 7.0 0.00 0.00 0.00 54 1024.5
20260830204319 69 287 5.0 5.0 0.00 0.00 0.00 54 1024.6
20260830203815 69 210 0.0 0.0 0.00 0.00 0.00 54 1024.7
20260830203312 69 289 0.0 3.0 0.00 0.00 0.00 54 1024.8
20260830202811 69 240 0.0 5.0 0.00 0.00 0.00 53 1024.8
20260830202306 70 297 3.0 5.0 0.00 0.00 0.00 52 1024.8
20260830201801 69 138 0.0 3.0 0.00 0.00 0.00 53 1024.7
20260830201255 70 237 0.0 0.0 0.00 0.00 0.00 53 1024.8
20260830200751 68 226 0.0 0.0 0.00 0.00 0.00 55 1024.9
20260830200250 67 299 4.0 7.0 0.00 0.00 0.00 57 1025.0
20260830195746 69 254 1.0 3.0 0.00 0.00 0.00 53 1025.1
20260830195244 69 143 0.0 3.0 0.00 0.00 0.00 52 1025.0
20260830194742 71 201 0.0 3.0 0.00 0.00 0.00 50 1025.2
20260830194237 70 261 1.0 5.0 0.00 0.00 0.00 52 1024.9
20260830193731 69 145 0.0 3.0 0.00 0.00 0.00 53 1025.1
20260830193226 69 212 0.0 7.0 0.00 0.00 0.00 54 1025.0
20260830192722 69 244 0.0 3.0 0.00 0.00 0.00 56 1025.1
20260830192217 68 210 0.0 0.0 0.00 0.00 0.00 55 1025.1
20260830191713 68 206 0.0 0.0 0.00 0.00 0.00 57 1025.2
20260830191207 67 148 0.0 0.0 0.00 0.00 0.00 56 1025.0
20260830190702 67 220 0.0 0.0 0.00 0.00 0.00 56 1024.9
20260830190157 67 239 0.0 0.0 0.00 0.00 0.00 56 1025.0
20260830185655 68 253 0.0 0.0 0.00 0.00 0.00 56 1025.1
20260830185151 68 155 2.0 7.0 0.00 0.00 0.00 54 1025.2
20260830184650 69 205 0.0 3.0 0.00 0.00 0.00 54 1025.3
20260830184150 69 214 0.0 3.0 0.00 0.00 0.00 54 1025.3
20260830183645 67 127 3.0 5.0 0.00 0.00 0.00 55 1025.2
20260830183141 69 235 0.0 3.0 0.00 0.00 0.00 54 1025.3
20260830182636 69 202 0.0 5.0 0.00 0.00 0.00 55 1025.4
20260830182132 67 224 0.0 3.0 0.00 0.00 0.00 59 1025.3
20260830181628 68 282 2.0 5.0 0.00 0.00 0.00 54 1025.4
20260830181127 69 258 0.0 3.0 0.00 0.00 0.00 54 1025.4
20260830180627 69 198 0.0 0.0 0.00 0.00 0.00 55 1025.3
20260830180127 68 134 0.0 0.0 0.00 0.00 0.00 57 1025.2
20260830175625 66 90 0.0 3.0 0.00 0.00 0.00 57 1025.3
20260830175121 66 203 0.0 3.0 0.00 0.00 0.00 59 1025.2
20260830174616 65 158 0.0 7.0 0.00 0.00 0.00 60 1025.5
20260830174112 65 166 0.0 5.0 0.00 0.00 0.00 60 1025.4
20260830173607 64 149 2.0 5.0 0.00 0.00 0.00 61 1025.3
20260830173102 64 159 1.0 7.0 0.00 0.00 0.00 61 1025.2
20260830172559 64 131 1.0 7.0 0.00 0.00 0.00 60 1025.2
20260830172055 66 147 0.0 3.0 0.00 0.00 0.00 59 1025.5
20260830171550 64 164 0.0 5.0 0.00 0.00 0.00 61 1025.2
20260830171045 63 158 0.0 5.0 0.00 0.00 0.00 62 1025.2
20260830170544 63 140 3.0 7.0 0.00 0.00 0.00 63 1025.4
20260830170044 64 128 0.0 3.0 0.00 0.00 0.00 61 1025.2
20260830165539 64 201 0.0 3.0 0.00 0.00 0.00 61 1025.2
20260830165035 64 138 0.0 3.0 0.00 0.00 0.00 62 1025.3
20260830164531 63 223 0.0 3.0 0.00 0.00 0.00 63 1025.1
20260830164027 62 168 0.0 0.0 0.00 0.00 0.00 66 1025.0
20260830163523 61 144 3.0 5.0 0.00 0.00 0.00 66 1025.2
20260830163022 62 142 2.0 5.0 0.00 0.00 0.00 65 1025.1
20260830162519 63 204 0.0 3.0 0.00 0.00 0.00 64 1025.4
20260830162019 63 132 0.0 5.0 0.00 0.00 0.00 63 1025.1
20260830161514 63 149 0.0 5.0 0.00 0.00 0.00 63 1025.2
20260830161008 62 153 0.0 0.0 0.00 0.00 0.00 66 1025.4
20260830160504 61 231 0.0 0.0 0.00 0.00 0.00 67 1025.6
20260830155959 61 207 0.0 0.0 0.00 0.00 0.00 67 1025.5
20260830155455 61 149 0.0 0.0 0.00 0.00 0.00 66 1025.3
20260830154950 61 192 0.0 5.0 0.00 0.00 0.00 66 1025.3
20260830154446 60 188 0.0 0.0 0.00 0.00 0.00 67 1025.3
20260830153942 59 112 0.0 5.0 0.00 0.00 0.00 69 1025.5
20260830153438 60 133 0.0 0.0 0.00 0.00 0.00 67 1025.5
20260830152937 59 191 0.0 0.0 0.00 0.00 0.00 70 1025.2
20260830152433 58 157 0.0 0.0 0.00 0.00 0.00 70 1025.2
20260830151931 58 149 0.0 0.0 0.00 0.00 0.00 71 1025.2
20260830151426 58 151 0.0 0.0 0.00 0.00 0.00 72 1025.4
20260830150921 57 135 0.0 0.0 0.00 0.00 0.00 72 1025.3
20260830150420 57 137 0.0 0.0 0.00 0.00 0.00 73 1025.2
20260830145914 57 170 0.0 0.0 0.00 0.00 0.00 73 1025.3
20260830145409 56 161 0.0 0.0 0.00 0.00 0.00 74 1025.3
20260830144904 56 133 0.0 0.0 0.00 0.00 0.00 75 1025.3
20260830144401 55 136 0.0 0.0 0.00 0.00 0.00 76 1025.2
20260830143855 55 149 0.0 0.0 0.00 0.00 0.00 76 1025.1
20260830143350 55 156 0.0 3.0 0.00 0.00 0.00 77 1025.2
20260830142850 55 135 0.0 5.0 0.00 0.00 0.00 77 1025.2
20260830142344 54 134 2.0 5.0 0.00 0.00 0.00 77 1024.8
20260830141840 54 143 2.0 3.0 0.00 0.00 0.00 77 1024.9
20260830141335 54 127 3.0 5.0 0.00 0.00 0.00 77 1025.0
20260830140830 54 138 0.0 5.0 0.00 0.00 0.00 78 1025.0
20260830140325 54 152 3.0 5.0 0.00 0.00 0.00 78 1024.8
20260830135819 54 133 0.0 0.0 0.00 0.00 0.00 78 1024.7
20260830135315 54 126 0.0 0.0 0.00 0.00 0.00 78 1024.8
20260830134811 54 120 0.0 0.0 0.00 0.00 0.00 78 1024.6
20260830134310 54 146 0.0 0.0 0.00 0.00 0.00 78 1024.7
20260830133806 54 149 0.0 0.0 0.00 0.00 0.00 78 1024.9
20260830133302 54 137 0.0 0.0 0.00 0.00 0.00 78 1024.7
20260830132757 54 192 0.0 0.0 0.00 0.00 0.00 78 1024.8
20260830132253 54 145 0.0 0.0 0.00 0.00 0.00 78 1024.8
20260830131752 54 149 0.0 0.0 0.00 0.00 0.00 78 1024.8
20260830131246 54 129 0.0 0.0 0.00 0.00 0.00 78 1024.6
20260830130742 54 138 0.0 0.0 0.00 0.00 0.00 78 1024.6
20260830130242 55 138 0.0 0.0 0.00 0.00 0.00 78 1024.6
20260830125736 55 164 0.0 0.0 0.00 0.00 0.00 78 1024.6
20260830125231 55 157 0.0 0.0 0.00 0.00 0.00 78 1024.7
20260830124728 55 130 0.0 0.0 0.00 0.00 0.00 78 1024.8
20260830124224 55 136 0.0 0.0 0.00 0.00 0.00 78 1024.9
20260830123721 55 125 0.0 0.0 0.00 0.00 0.00 78 1024.8
20260830123217 55 139 0.0 0.0 0.00 0.00 0.00 78 1024.8
20260830122715 55 136 0.0 0.0 0.00 0.00 0.00 78 1024.8
20260830122209 55 131 0.0 0.0 0.00 0.00 0.00 78 1024.9
20260830121705 55 141 0.0 0.0 0.00 0.00 0.00 78 1024.6
20260830121204 55 155 0.0 0.0 0.00 0.00 0.00 78 1024.9
20260830120659 55 171 0.0 0.0 0.00 0.00 0.00 78 1024.9
20260830120155 55 128 0.0 0.0 0.00 0.00 0.00 78 1024.9
20260830115651 55 163 0.0 0.0 0.00 0.00 0.00 78 1024.8
20260830115147 55 152 0.0 0.0 0.00 0.00 0.00 78 1024.9
20260830114643 55 158 0.0 0.0 0.00 0.00 0.00 78 1024.8
20260830114143 55 177 0.0 0.0 0.00 0.00 0.00 78 1024.8
20260830113638 55 205 0.0 0.0 0.00 0.00 0.00 78 1024.7
20260830113133 55 164 0.0 0.0 0.00 0.00 0.00 78 1024.8
20260830112630 55 146 0.0 0.0 0.00 0.00 0.00 78 1024.7
20260830112126 55 141 0.0 0.0 0.00 0.00 0.00 78 1024.5
20260830111621 55 145 0.0 0.0 0.00 0.00 0.00 79 1024.4
20260830111116 55 146 0.0 0.0 0.00 0.00 0.00 79 1024.6
20260830110616 55 164 0.0 0.0 0.00 0.00 0.00 79 1024.6
20260830110112 55 154 0.0 0.0 0.00 0.00 0.00 80 1024.5
20260830105607 55 140 0.0 0.0 0.00 0.00 0.00 80 1024.5
20260830105103 55 164 0.0 0.0 0.00 0.00 0.00 80 1024.7
20260830104600 54 177 0.0 0.0 0.00 0.00 0.00 80 1024.5
20260830104056 54 190 0.0 0.0 0.00 0.00 0.00 80 1024.7
20260830103555 55 151 0.0 0.0 0.00 0.00 0.00 80 1024.6
20260830103054 54 194 0.0 0.0 0.00 0.00 0.00 80 1024.8
20260830102549 54 168 0.0 0.0 0.00 0.00 0.00 80 1024.8
20260830102045 54 175 0.0 0.0 0.00 0.00 0.00 80 1024.7
20260830101540 54 165 0.0 0.0 0.00 0.00 0.00 80 1024.6
20260830101039 55 177 0.0 0.0 0.00 0.00 0.00 80 1024.4
20260830100534 55 180 0.0 0.0 0.00 0.00 0.00 79 1024.5
20260830100033 55 156 0.0 0.0 0.00 0.00 0.00 80 1024.6
20260830095528 55 165 0.0 0.0 0.00 0.00 0.00 79 1024.4
20260830095024 55 151 0.0 0.0 0.00 0.00 0.00 79 1024.5
20260830094521 55 155 0.0 0.0 0.00 0.00 0.00 79 1024.4
20260830094015 55 157 0.0 0.0 0.00 0.00 0.00 79 1024.3
20260830093510 55 184 0.0 0.0 0.00 0.00 0.00 79 1024.4
20260830093007 55 181 0.0 0.0 0.00 0.00 0.00 78 1024.3
20260830092507 55 186 0.0 0.0 0.00 0.00 0.00 78 1024.3
20260830092004 55 190 0.0 0.0 0.00 0.00 0.00 78 1024.4
20260830091458 55 200 0.0 0.0 0.00 0.00 0.00 77 1024.5
20260830090957 55 205 0.0 0.0 0.00 0.00 0.00 77 1024.6
20260830090452 55 198 0.0 0.0 0.00 0.00 0.00 77 1024.6
20260830085947 55 197 0.0 0.0 0.00 0.00 0.00 76 1024.7
20260830085442 56 175 0.0 0.0 0.00 0.00 0.00 76 1024.6
20260830084938 56 172 0.0 0.0 0.00 0.00 0.00 77 1024.5
20260830084433 55 205 0.0 0.0 0.00 0.00 0.00 76 1024.5
20260830083928 56 215 0.0 0.0 0.00 0.00 0.00 76 1024.3
20260830083424 56 194 0.0 0.0 0.00 0.00 0.00 76 1024.5
20260830082923 56 180 0.0 0.0 0.00 0.00 0.00 75 1024.4
20260830082419 56 186 0.0 0.0 0.00 0.00 0.00 75 1024.5
20260830081914 56 160 0.0 0.0 0.00 0.00 0.00 75 1024.4
20260830081409 57 195 0.0 0.0 0.00 0.00 0.00 74 1024.3
20260830080908 57 139 0.0 0.0 0.00 0.00 0.00 74 1024.5
20260830080404 57 176 0.0 0.0 0.00 0.00 0.00 74 1024.3
20260830075903 57 154 0.0 0.0 0.00 0.00 0.00 74 1024.5
20260830075359 57 172 0.0 0.0 0.00 0.00 0.00 73 1024.4
20260830074854 57 149 0.0 0.0 0.00 0.00 0.00 73 1024.5
20260830074349 57 209 0.0 0.0 0.00 0.00 0.00 73 1024.5
20260830073845 57 192 0.0 0.0 0.00 0.00 0.00 73 1024.4
20260830073341 57 149 0.0 0.0 0.00 0.00 0.00 73 1024.5
20260830072836 57 146 0.0 0.0 0.00 0.00 0.00 72 1024.3
20260830072332 57 179 0.0 0.0 0.00 0.00 0.00 72 1024.4
20260830071826 57 168 0.0 0.0 0.00 0.00 0.00 72 1024.3
20260830071326 57 128 0.0 0.0 0.00 0.00 0.00 72 1024.1
20260830070824 57 183 0.0 0.0 0.00 0.00 0.00 72 1024.3
20260830070319 57 129 0.0 0.0 0.00 0.00 0.00 72 1024.2
20260830065818 57 135 0.0 0.0 0.00 0.29 0.29 72 1024.3
20260830065313 58 175 0.0 0.0 0.00 0.29 0.29 70 1024.4
20260830064812 58 185 0.0 0.0 0.00 0.29 0.29 70 1024.4
20260830064307 58 133 1.0 3.0 0.00 0.29 0.29 69 1024.4
20260830063807 58 154 0.0 0.0 0.00 0.29 0.29 69 1024.2
20260830063302 58 149 0.0 5.0 0.00 0.29 0.29 69 1024.1
20260830062756 58 201 0.0 3.0 0.00 0.29 0.29 69 1024.1
20260830062255 59 130 0.0 0.0 0.00 0.29 0.29 69 1024.0
20260830061750 59 176 0.0 0.0 0.00 0.29 0.29 67 1024.0
20260830061246 59 170 0.0 0.0 0.00 0.29 0.29 67 1024.1
20260830060743 59 177 0.0 0.0 0.00 0.29 0.29 66 1024.1
20260830060239 60 159 0.0 0.0 0.00 0.29 0.29 66 1024.1
20260830055733 60 171 0.0 0.0 0.00 0.29 0.29 66 1024.2
20260830055230 60 196 0.0 0.0 0.00 0.29 0.29 66 1024.1
20260830054724 60 164 0.0 3.0 0.00 0.29 0.29 65 1023.9